When you browse on this site, cookies collect data to enhance your experience and personalize the content and advertising you see.
Visit our Privacy Policy to learn more. By continuing to use the site, you agree to this use of cookies and data.
  • En España
  • Lista de países
  • Para 7 días
  • Temperatura del agua
  • El tiempo en el mapa
  • Informadores
  • user-avatar
    Iniciar sesión

    Tiempo cada hora Alcoi

    Hoy, 31 Marzo, Martes

    Tiempo Temperatura Precipitaciones Viento Presión Humedad
    00:00 +6°C° 0 mm 4 mps 710 mmHg 91%
    01:00 +6°C° 0 mm 4 mps 709 mmHg 91%
    02:00 +6°C° 0 mm 4 mps 708 mmHg 91%
    03:00 +7°C° 0 mm 3 mps 708 mmHg 91%
    04:00 +7°C° 0.1 mm 3 mps 707 mmHg 91%
    05:00 +7°C° 0.1 mm 3 mps 707 mmHg 90%
    06:00 +7°C° 0 mm 3 mps 707 mmHg 89%
    07:00 +7°C° 0.4 mm 3 mps 708 mmHg 90%
    08:00 +7°C° 0.4 mm 3 mps 708 mmHg 90%
    09:00 +7°C° 0.4 mm 3 mps 708 mmHg 90%
    10:00 +9°C° 0.1 mm 3 mps 708 mmHg 87%
    11:00 +10°C° 0.1 mm 2 mps 708 mmHg 84%
    12:00 +12°C° 0 mm 2 mps 709 mmHg 80%
    13:00 +12°C° 0 mm 2 mps 709 mmHg 79%
    14:00 +13°C° 0 mm 2 mps 708 mmHg 78%
    15:00 +13°C° 0 mm 2 mps 708 mmHg 77%
    16:00 +13°C° 0 mm 2 mps 708 mmHg 80%
    17:00 +13°C° 0 mm 2 mps 708 mmHg 82%
    18:00 +13°C° 0 mm 2 mps 709 mmHg 84%
    19:00 +12°C° 0 mm 2 mps 709 mmHg 87%
    20:00 +10°C° 0 mm 2 mps 709 mmHg 90%
    21:00 +11°C° 0 mm 1 mps 710 mmHg 93%
    22:00 +10°C° 0 mm 2 mps 710 mmHg 93%
    23:00 +10°C° 0 mm 2 mps 710 mmHg 92%

    Mañana, 1 Abril, Miércoles

    Tiempo Temperatura Precipitaciones Viento Presión Humedad
    00:00 +10°C° 0 mm 2 mps 710 mmHg 92%
    01:00 +11°C° 0 mm 1 mps 710 mmHg 92%
    02:00 +11°C° 0 mm 1 mps 710 mmHg 92%
    03:00 +11°C° 0 mm 1 mps 709 mmHg 93%
    04:00 +11°C° 0.1 mm 1 mps 709 mmHg 92%
    05:00 +11°C° 0.1 mm 1 mps 710 mmHg 92%
    06:00 +10°C° 0.1 mm 1 mps 710 mmHg 91%
    07:00 +11°C° 0.3 mm 1 mps 710 mmHg 86%
    08:00 +12°C° 0.3 mm 2 mps 710 mmHg 81%
    09:00 +11°C° 0.3 mm 3 mps 711 mmHg 77%
    10:00 +13°C° 0.1 mm 3 mps 711 mmHg 68%
    11:00 +14°C° 0.1 mm 3 mps 711 mmHg 60%
    12:00 +17°C° 0.1 mm 3 mps 711 mmHg 51%
    13:00 +17°C° 0 mm 3 mps 711 mmHg 49%
    14:00 +17°C° 0 mm 3 mps 710 mmHg 46%
    15:00 +18°C° 0 mm 3 mps 710 mmHg 43%
    16:00 +17°C° 0.2 mm 2 mps 710 mmHg 51%
    17:00 +16°C° 0.2 mm 2 mps 710 mmHg 59%
    18:00 +14°C° 0.2 mm 2 mps 709 mmHg 67%
    19:00 +13°C° 1.2 mm 2 mps 710 mmHg 74%
    20:00 +12°C° 1.2 mm 2 mps 710 mmHg 81%
    21:00 +10°C° 1.2 mm 3 mps 711 mmHg 89%
    22:00 +10°C° 3.8 mm 3 mps 711 mmHg 89%
    23:00 +10°C° 3.8 mm 4 mps 711 mmHg 90%

    Pasado mañana, 2 Abril, Jueves

    Tiempo Temperatura Precipitaciones Viento Presión Humedad
    00:00 +8°C° 3.8 mm 4 mps 711 mmHg 91%
    01:00 +9°C° 1.1 mm 3 mps 710 mmHg 90%
    02:00 +9°C° 1.1 mm 3 mps 710 mmHg 90%
    03:00 +9°C° 1.1 mm 2 mps 710 mmHg 89%
    04:00 +8°C° 0 mm 2 mps 710 mmHg 88%
    05:00 +8°C° 0 mm 2 mps 709 mmHg 86%
    06:00 +7°C° 0 mm 2 mps 709 mmHg 85%
    07:00 +9°C° 0 mm 2 mps 710 mmHg 78%
    08:00 +10°C° 0 mm 2 mps 710 mmHg 71%
    09:00 +13°C° 0 mm 2 mps 711 mmHg 64%
    10:00 +13°C° 0.1 mm 2 mps 711 mmHg 61%
    11:00 +14°C° 0.1 mm 2 mps 710 mmHg 57%
    12:00 +15°C° 0.1 mm 2 mps 710 mmHg 54%
    13:00 +15°C° 0.6 mm 2 mps 710 mmHg 57%
    14:00 +14°C° 0.6 mm 3 mps 710 mmHg 60%
    15:00 +13°C° 0.6 mm 3 mps 710 mmHg 63%
    16:00 +12°C° 0.7 mm 3 mps 710 mmHg 69%
    17:00 +12°C° 0.7 mm 3 mps 710 mmHg 75%
    18:00 +11°C° 0.7 mm 3 mps 710 mmHg 81%
    19:00 +10°C° 0.9 mm 3 mps 710 mmHg 84%
    20:00 +10°C° 0.9 mm 3 mps 710 mmHg 87%
    21:00 +9°C° 0.9 mm 3 mps 711 mmHg 89%
    22:00 +9°C° 1.2 mm 2 mps 710 mmHg 90%
    23:00 +9°C° 1.2 mm 2 mps 710 mmHg 91%

    3 Abril, Viernes

    Tiempo Temperatura Precipitaciones Viento Presión Humedad
    00:00 +9°C° 1.2 mm 2 mps 710 mmHg 91%
    01:00 +9°C° 1.3 mm 3 mps 710 mmHg 91%
    02:00 +9°C° 1.3 mm 3 mps 710 mmHg 90%
    03:00 +8°C° 1.3 mm 4 mps 710 mmHg 90%
    04:00 +8°C° 1.1 mm 5 mps 710 mmHg 90%
    05:00 +8°C° 1.1 mm 5 mps 710 mmHg 90%
    06:00 +8°C° 1.1 mm 6 mps 710 mmHg 90%
    07:00 +8°C° 0.1 mm 6 mps 711 mmHg 89%
    08:00 +8°C° 0.1 mm 6 mps 711 mmHg 87%
    09:00 +8°C° 0.1 mm 6 mps 711 mmHg 86%
    10:00 +8°C° 0.1 mm 6 mps 712 mmHg 85%
    11:00 +9°C° 0.1 mm 5 mps 712 mmHg 85%
    12:00 +9°C° 0.1 mm 5 mps 712 mmHg 84%
    13:00 +9°C° 0.1 mm 5 mps 712 mmHg 82%
    14:00 +10°C° 0.1 mm 5 mps 712 mmHg 80%
    15:00 +10°C° 0.1 mm 5 mps 712 mmHg 78%
    16:00 +10°C° 0.1 mm 5 mps 713 mmHg 79%
    17:00 +10°C° 0.1 mm 4 mps 713 mmHg 80%
    18:00 +10°C° 0.1 mm 4 mps 713 mmHg 82%
    19:00 +9°C° 0 mm 3 mps 713 mmHg 85%
    20:00 +8°C° 0 mm 3 mps 714 mmHg 88%
    21:00 +7°C° 0 mm 2 mps 714 mmHg 92%
    22:00 +7°C° 0 mm 2 mps 714 mmHg 91%
    23:00 +7°C° 0 mm 2 mps 714 mmHg 91%

    4 Abril, Sábado

    Tiempo Temperatura Precipitaciones Viento Presión Humedad
    00:00 +7°C° 0 mm 2 mps 714 mmHg 90%
    01:00 +7°C° 0 mm 2 mps 714 mmHg 90%
    02:00 +7°C° 0 mm 2 mps 714 mmHg 90%
    03:00 +7°C° 0 mm 2 mps 714 mmHg 90%
    04:00 +6°C° 0 mm 2 mps 714 mmHg 90%
    05:00 +6°C° 0 mm 2 mps 714 mmHg 89%
    06:00 +6°C° 0 mm 2 mps 714 mmHg 89%
    07:00 +8°C° 0 mm 2 mps 714 mmHg 84%
    08:00 +9°C° 0 mm 2 mps 715 mmHg 78%
    09:00 +11°C° 0 mm 3 mps 715 mmHg 73%
    10:00 +11°C° 0 mm 3 mps 715 mmHg 71%
    11:00 +12°C° 0 mm 3 mps 716 mmHg 70%
    12:00 +13°C° 0 mm 3 mps 716 mmHg 69%
    13:00 +13°C° 0.1 mm 3 mps 716 mmHg 69%
    14:00 +13°C° 0.1 mm 4 mps 715 mmHg 69%
    15:00 +14°C° 0.1 mm 4 mps 715 mmHg 69%
    16:00 +13°C° 0 mm 3 mps 715 mmHg 73%
    17:00 +12°C° 0 mm 3 mps 715 mmHg 77%
    18:00 +12°C° 0 mm 3 mps 715 mmHg 81%
    19:00 +12°C° 0 mm 2 mps 715 mmHg 85%
    20:00 +10°C° 0 mm 2 mps 716 mmHg 90%
    21:00 +9°C° 0 mm 2 mps 716 mmHg 94%
    22:00 +9°C° 0 mm 2 mps 716 mmHg 94%
    23:00 +10°C° 0 mm 1 mps 716 mmHg 94%

    5 Abril, Domingo

    Tiempo Temperatura Precipitaciones Viento Presión Humedad
    00:00 +10°C° 0 mm 1 mps 716 mmHg 95%
    01:00 +9°C° 0 mm 1 mps 715 mmHg 94%
    02:00 +9°C° 0 mm 1 mps 715 mmHg 94%
    03:00 +8°C° 0 mm 2 mps 715 mmHg 93%
    04:00 +9°C° 0 mm 1 mps 715 mmHg 92%
    05:00 +9°C° 0 mm 1 mps 715 mmHg 92%
    06:00 +9°C° 0 mm 1 mps 715 mmHg 91%
    07:00 +9°C° 0 mm 2 mps 715 mmHg 85%
    08:00 +10°C° 0 mm 2 mps 715 mmHg 80%
    09:00 +12°C° 0 mm 2 mps 716 mmHg 75%
    10:00 +13°C° 0 mm 2 mps 716 mmHg 72%
    11:00 +13°C° 0 mm 3 mps 716 mmHg 69%
    12:00 +13°C° 0 mm 3 mps 716 mmHg 66%
    13:00 +14°C° 0 mm 3 mps 715 mmHg 65%
    14:00 +14°C° 0 mm 3 mps 715 mmHg 65%
    15:00 +14°C° 0 mm 3 mps 715 mmHg 65%
    16:00 +14°C° 0 mm 2 mps 715 mmHg 68%
    17:00 +14°C° 0 mm 2 mps 715 mmHg 72%
    18:00 +13°C° 0 mm 2 mps 714 mmHg 76%
    19:00 +12°C° 0.1 mm 1 mps 715 mmHg 79%
    20:00 +12°C° 0.1 mm 1 mps 715 mmHg 82%
    21:00 +11°C° 0.1 mm 1 mps 715 mmHg 85%
    22:00 +11°C° 0.1 mm 1 mps 715 mmHg 85%
    23:00 +11°C° 0.1 mm 1 mps 715 mmHg 85%
    Mostrar más